Regional Weather Roundup
Issued by NWS

Home | Current Version | Previous Version | Text Only | Print | Product List | Glossary On
Versions: 1 2 3 4 5 6 7 8 9 10 11 12 13 14 15 16 17 18 19 20 21 22 23 24 25 26 27
000
ASUS45 KTFX 180010
RWRMT
MONTANA REGIONAL WEATHER ROUNDUP
NATIONAL WEATHER SERVICE GREAT FALLS MT
600 PM MDT TUE OCT 17 2017

NOTE: "FAIR" INDICATES FEW OR NO CLOUDS BELOW 12000 FEET WITH NO
SIGNIFICANT WEATHER AND/OR OBSTRUCTIONS TO VISIBILITY.

MTZ001>007-043-180100-
WEST OF THE DIVIDE

CITY           SKY/WX    TMP DP  RH WIND       PRES   REMARKS
KALISPELL      MOCLDY    63  27  25 SW30G49   29.67R
MISSOULA         N/A     66  24  20 SW25G32   29.83S
BUTTE          CLOUDY    63  16  16 W15G21    29.92F
MULLAN PASS    CLOUDY    44  31  60 W10G23    29.92R
ANACONDA         N/A     64  19  17 SW9G21    29.88S
DEER LODGE       N/A     64  18  16 SW10G23   29.85F
EUREKA           N/A     52  39  62 MISG      29.70R
HAMILTON         N/A     66  21  18 W7G26     29.88S
LIBBY            N/A     61  34  36 S12G20    29.70R
PLAINS           N/A     65  32  29 SW20      29.83R
$$

MTZ008-052>055-180100-
SOUTHWEST MONTANA

CITY           SKY/WX    TMP DP  RH WIND       PRES   REMARKS
BOZEMAN        CLOUDY    69  17  13 SW16      29.87F
DILLON         CLOUDY    65  20  17 SW20      29.94F
W YELLOWSTONE  CLOUDY    52  12  20 VRB7G15   30.12R
ENNIS          CLOUDY    59  18  20 S22       30.01F
THREE FORKS      N/A     67  17  14 S21       29.86F
$$

MTZ009-010-012-014-046-048-049-054-180100-
EAST SLOPES AND CENTRAL MONTANA

CITY           SKY/WX    TMP DP  RH WIND       PRES   REMARKS
CUT BANK         N/A     62  21  20 SW43G59   29.54S
GREAT FALLS    CLEAR     68  18  14 SW29G46   29.63F
MALMSTROM AFB  CLEAR     70  19  14 SW30G48   29.63F
HELENA         CLOUDY    70  20  15 W15G25    29.76F
BOWMANS CRNR     N/A     63  20  19 SW44G49   29.67S
CHOTEAU          N/A     64  19  17 SW29G39   29.64R
FAIRFIELD        N/A     65  20  18 SW36G44   29.64R
POWER            N/A     65  21  18 SW36G51   29.62S
RAYNESFORD       N/A     69  17  13 SW28G37   29.66F
ULM              N/A     69  19  14 SW29G43   29.66
$$

MTZ011-013-016-021-045-047-050-051-180100-
NORTH CENTRAL MONTANA

CITY           SKY/WX    TMP DP  RH WIND       PRES   REMARKS
HAVRE          CLEAR     72  23  16 SW32G52   29.47F
LEWISTOWN      CLOUDY    71  19  14 W33G40    29.70F
N BAR RANCH      N/A     70  14  11 W12G30    29.74F
CHINOOK          N/A    N/A N/A N/A SW22      29.46F
DENTON           N/A     71  19  13 SW23G36   29.60F
GEYSER           N/A     69  18  14 W22G40    29.64F
GRASS RANGE      N/A     70  18  13 SW18      29.64F
JUDITH GAP       N/A     68  18  15 SW20G37   29.77F
WINIFRED         N/A     70  21  15 W17G24    29.62F
$$

MTZ017>020-022>027-061-062-180100-
NORTHEAST MONTANA

CITY           SKY/WX    TMP DP  RH WIND       PRES   REMARKS
GLASGOW        CLOUDY    71  24  17 SW13      29.55F
JORDAN           N/A     70  24  17 SW14      29.63F
SIDNEY         CLOUDY    68  26  20 SW12      29.62F
WOLF POINT     PTCLDY    72  25  17 SW9       29.56F
MALTA          CLEAR     72  23  16 SW16G29   29.51F
PLENTYWOOD       N/A     72  25  17 SW13G20   29.53F
POPLAR           N/A     73  25  16 SW9       29.57F
$$

MTZ028>42-056>058-180100-
SOUTHCENTRAL AND SOUTHEAST MONTANA

CITY           SKY/WX    TMP DP  RH WIND       PRES   REMARKS
BAKER          CLOUDY    66  24  20 S10       29.76F
BILLINGS       CLOUDY    71  23  16 SW12G23   29.77F
LIVINGSTON     CLOUDY    67  16  14 SW35G53   29.82F
MILES CITY     CLOUDY    69  27  20 SW10      29.71F
BIG TIMBER     CLEAR     66  14  13 W22       29.84F
HARLOWTON        N/A     69  16  13 MISG      29.74F
LAUREL           N/A     68  21  17 S22       29.78F
$$

REGIONAL REPORTS...DAKOTAS

CITY           SKY/WX    TMP DP  RH WIND       PRES   REMARKS
WILLISTON      CLOUDY    69  26  20 S7        29.59F
MINOT          CLEAR     70  31  23 S14       29.60F
DICKINSON      CLEAR     59  25  27 SW13      29.70F
BEACH            N/A     61  23  23 S12       29.74S
CROSBY           N/A     66  25  20 SW13      29.54F
TIOGA            N/A     63  30  29 SW12      29.61S
WATFORD CITY     N/A     66  25  20 SW13      29.62F
BISMARCK       CLOUDY    71  27  19 SW8       29.71F
GRAND FORKS    PTCLDY    64  33  31 SW9       29.66F
FARGO          CLEAR     66  42  41 S12       29.73F
BUFFALO SD       N/A     66  19  16 SW15      29.75S
RAPID CITY     CLEAR     66  26  22 W7        29.84S
$$

REGIONAL REPORTS...WYOMING/IDAHO/WASHINGTON

CITY           SKY/WX    TMP DP  RH WIND       PRES   REMARKS
GILLETTE       CLOUDY    57  29  34 S9        29.89F
SHERIDAN       CLOUDY    63  31  30 CALM      29.83F
BUFFALO WY     CLOUDY    68   9  10 E3        29.91F
CODY           CLOUDY    68  18  14 S7        29.95F
IDAHO FALLS    CLOUDY    60  31  33 SW12      30.08F
SALMON         CLOUDY    56  32  40 S5        29.96F
BOISE          PTCLDY    65  30  27 NW3       30.05F HAZE
SPOKANE        CLOUDY    58  26  29 W31G37    29.91R
$$

REGIONAL REPORTS...ALBERTA

CITY           SKY/WX    TMP DP  RH WIND       PRES   REMARKS
EDMONTON       CLOUDY    45  41  87 W18G24    29.28R
CALGARY        MOCLDY    46  36  66 N32G43    29.41R
LETHBRIDGE     MOCLDY    66  23  19 W51G69    29.35R
MEDICINE HAT   PTCLDY    70  23  17 SW37G51   29.25F
$$

REGIONAL REPORTS...SASKATCHEWAN

CITY           SKY/WX    TMP DP  RH WIND       PRES   REMARKS
SWIFT CURRENT  CLEAR     68  19  15 SW30G43   29.31F
REGINA         PTCLDY    68  21  17 SW20G29   29.36F
SASKATOON      PTCLDY    70  27  19 S17G25    29.13F BLWGDUST
$$




USA.gov is the U.S. government's official web portal to all federal, state and local government web resources and services.